#timestamp,LO_Frequency,Hit,StdDev 
1654408815.7,286046993.8,N
1654408835.5,286046996.0,N
1654408855.4,286046993.3,N
1654408875.2,286046995.2,N
1654408895.0,286046997.4,N
1654408895.9,286046997.4,N
1654408915.8,286046997.4,N
1654408935.6,286046997.8,N
1654408955.4,286046995.6,N
1654408975.3,286046993.4,Y
1654408995.1,286046996.8,P
1654409015.9,286046997.4,P
1654409035.7,286046997.1,P
1654409055.5,286046996.5,Y
1654409075.4,286047002.2,P
1654409095.2,286047000.3,N
1654409115.1,286047000.2,N
1654409116.0,286047000.2,N
1654409135.8,286047002.7,N
1654409155.6,286047002.8,N
1654409175.5,286047000.1,N
1654409195.3,286047004.0,N
1654409215.1,286047003.8,N
1654409235.9,286047004.1,N
1654409255.7,286047004.1,N
1654409275.6,286047001.4,N
1654409295.4,286047004.0,N
1654409315.2,286047001.7,N
1654409335.1,286047002.4,N
1654409336.0,286047002.4,N
1654409355.8,286047002.3,N
1654409375.6,286047002.4,N
1654409395.5,286047000.2,N
1654409415.3,286047002.4,N
1654409435.2,286046999.7,N
1654409455.9,286047002.7,N
1654409475.7,286047001.6,N
1654409495.6,286047002.6,N
1654409515.4,286047002.0,N
1654409535.3,286047004.3,N
1654409555.1,286047004.0,N
1654409575.8,286047001.7,N
1654409595.7,286047002.3,N
1654409615.5,286047001.9,N
1654409635.4,286047001.6,N
1654409655.2,286047001.9,N
1654409675.0,286047002.4,N
1654409675.9,286047002.4,N
1654409695.8,286047002.7,N
1654409715.6,286047000.4,N
1654409735.5,286046999.7,N
1654409755.3,286047000.0,N
1654409775.1,286047001.2,N
1654409795.9,286047000.6,N
1654409815.7,286047000.4,N
1654409835.6,286047000.4,N
1654409855.4,286047002.7,N
1654409875.2,286047000.1,N
1654409895.1,286047001.1,N
1654409896.0,286047001.1,N
1654409915.8,286047001.0,N
1654409935.6,286046999.8,N
1654409955.5,286047000.8,N
1654409975.3,286046999.9,N
1654409995.2,286047002.6,N
1654410015.9,286047000.5,N
1654410035.7,286047001.2,N
1654410055.6,286046998.8,N
1654410075.4,286046998.1,N
1654410095.3,286046998.5,N
1654410115.1,286047000.6,N
1654410116.0,286047000.6,N
1654410135.8,286047000.6,N
1654410155.7,286047001.2,N
1654410175.5,286046999.0,N
1654410195.3,286046998.8,N
1654410215.2,286046999.0,N
1654410235.0,286046998.7,N
1654410235.9,286046998.7,N
1654410255.8,286046998.2,N
1654410275.6,286047000.6,N
1654410295.4,286047000.6,N
1654410315.3,286047000.5,N
1654410335.1,286046999.8,N
1654410355.9,286047002.6,N
1654410375.7,286047000.2,N
1654410395.5,286047000.6,N
1654410415.4,286046999.8,N
1654410435.2,286047000.6,N
1654410455.1,286047000.0,N
1654410456.0,286047000.0,N
1654410475.8,286047000.3,N
1654410495.6,286047000.2,N
1654410515.5,286047000.0,N
1654410535.3,286047000.0,N
1654410555.2,286047000.2,N
1654410575.9,286047001.2,N
1654410595.7,286046999.8,N
1654410615.6,286047000.1,N
1654410635.4,286047000.2,N
1654410655.2,286047000.5,N
1654410675.1,286047000.6,N
1654410676.0,286047000.6,N
1654410695.8,286046998.3,N
1654410715.7,286047001.0,N
1654410735.5,286046998.5,N
1654410755.3,286047000.4,N
1654410775.2,286046998.7,N
1654410795.0,286047000.8,N
1654410795.9,286047000.8,N
1654410815.8,286047000.8,N
1654410835.6,286047000.2,N
1654410855.4,286046998.7,N
1654410875.3,286046998.4,N
1654410895.1,286046998.8,N
1654410915.8,286046999.0,N
1654410935.7,286046999.2,N
1654410955.5,286046996.9,Y
1654410975.4,286046998.5,P
1654410995.2,286046999.0,N
1654411015.0,286047001.1,N
1654411015.9,286047001.1,N
1654411035.8,286047000.7,N
1654411055.6,286046998.6,N
1654411075.5,286047001.1,N
1654411095.3,286047001.2,N
1654411115.1,286047000.7,N
1654411135.9,286046999.9,N
1654411155.7,286047000.0,N
1654411175.5,286047002.4,N
1654411195.4,286047000.2,N
1654411215.2,286047000.0,N
1654411235.1,286046999.7,N
1654411236.0,286046999.7,N
1654411255.8,286046999.7,N
1654411275.6,286046999.8,N
1654411295.5,286047000.7,N
1654411315.3,286046998.4,N
1654411335.2,286046999.1,N
1654411355.9,286046998.5,N
1654411375.7,286047000.9,N
1654411395.6,286047000.3,N
1654411415.4,286047002.3,N
1654411435.2,286046999.9,N
1654411455.1,286047001.2,N
1654411456.0,286047001.2,N
1654411475.8,286047000.7,N
1654411495.7,286047001.1,N
1654411515.5,286046998.7,N
1654411535.3,286046999.4,N
1654411555.2,286046998.9,N
1654411575.0,286046999.3,N
1654411575.9,286046999.3,N
1654411595.8,286046998.7,N
1654411615.6,286046997.4,N
1654411635.4,286046997.2,N
1654411655.3,286046997.3,N
1654411675.1,286046996.6,N
1654411695.8,286046999.0,N
1654411715.7,286046998.6,N
1654411735.5,286047001.2,N
1654411755.4,286046999.6,N
1654411775.2,286046997.1,N
1654411795.0,286046997.5,N
1654411795.9,286046997.5,N
1654411815.8,286046996.9,N
1654411835.6,286046996.9,N
1654411855.5,286046998.1,N
1654411875.3,286047001.2,N
1654411895.1,286046998.1,N
1654411915.9,286046998.2,N
1654411935.7,286046998.3,N
1654411955.6,286046998.2,N
1654411975.4,286046998.6,N
1654411995.2,286047001.2,N
1654412015.1,286047000.6,N
1654412016.0,286047000.6,N
1654412035.8,286047001.0,N
1654412055.6,286047000.0,N
1654412075.5,286046998.9,N
1654412095.3,286046997.0,N
1654412115.2,286046998.8,N
1654412135.9,286046998.3,N
1654412155.7,286047001.0,N
1654412175.6,286047000.0,N
1654412195.4,286047000.8,N
1654412215.2,286046998.2,N
1654412235.1,286046998.7,N
1654412236.0,286046998.7,N
1654412255.8,286046997.4,N
1654412275.7,286046997.4,N
1654412295.5,286046995.1,Y
1654412315.3,286046997.4,P
1654412335.2,286046999.3,N
1654412355.0,286046998.5,N
1654412355.9,286046998.5,N
1654412375.8,286046999.0,N
1654412395.6,286046998.9,N
